• In Uzbekistan
  • List of Countries
  • For 7 days
  • Water Temperature
  • Satellite Maps
  • Weather Map
  • Weather Widgets
  • user-avatar
    Login

    Hourly Weather Bafoussam

    Today, 20 November, Monday

    Time Temperature Precipitation Wind Pressure Humidity
    00:00 +18°C° 0.1 mm 1 mps 644 mmHg 83%
    01:00 +18°C° 0 mm 1 mps 644 mmHg 85%
    02:00 +18°C° 0.1 mm 1 mps 644 mmHg 85%
    03:00 +18°C° 0.1 mm 1 mps 643 mmHg 85%
    04:00 +18°C° 0.1 mm 1 mps 643 mmHg 85%
    05:00 +18°C° 0.2 mm 1 mps 643 mmHg 84%
    06:00 +18°C° 0.2 mm 1 mps 644 mmHg 84%
    07:00 +19°C° 0 mm 1 mps 644 mmHg 83%
    08:00 +20°C° 0.2 mm 1 mps 644 mmHg 77%
    09:00 +21°C° 0.2 mm 1 mps 645 mmHg 70%
    10:00 +21°C° 0.2 mm 2 mps 645 mmHg 64%
    11:00 +24°C° 0 mm 2 mps 645 mmHg 59%
    12:00 +25°C° 0 mm 2 mps 645 mmHg 54%
    13:00 +27°C° 0 mm 3 mps 645 mmHg 49%
    14:00 +27°C° 0.1 mm 3 mps 645 mmHg 50%
    15:00 +27°C° 0.1 mm 2 mps 644 mmHg 52%
    16:00 +27°C° 0.1 mm 2 mps 644 mmHg 54%
    17:00 +25°C° 0.5 mm 2 mps 644 mmHg 63%
    18:00 +23°C° 0.5 mm 1 mps 643 mmHg 72%
    19:00 +21°C° 0.5 mm 1 mps 643 mmHg 81%
    20:00 +20°C° 0.7 mm 1 mps 643 mmHg 83%
    21:00 +20°C° 0.7 mm 1 mps 644 mmHg 85%
    22:00 +20°C° 0.7 mm 1 mps 644 mmHg 87%
    23:00 +19°C° 0 mm 1 mps 644 mmHg 88%

    Tomorrow, 21 November, Tuesday

    Time Temperature Precipitation Wind Pressure Humidity
    00:00 +19°C° 0 mm 1 mps 644 mmHg 88%
    01:00 +19°C° 0 mm 1 mps 643 mmHg 88%
    02:00 +19°C° 0.1 mm 1 mps 643 mmHg 88%
    03:00 +17°C° 0.1 mm 0 mps 643 mmHg 87%
    04:00 +17°C° 0.1 mm 0 mps 643 mmHg 86%
    05:00 +19°C° 0.1 mm 1 mps 643 mmHg 86%
    06:00 +19°C° 0.1 mm 1 mps 643 mmHg 85%
    07:00 +19°C° 0.1 mm 1 mps 644 mmHg 84%
    08:00 +21°C° 0.1 mm 1 mps 645 mmHg 75%
    09:00 +23°C° 0.1 mm 1 mps 645 mmHg 67%
    10:00 +25°C° 0.1 mm 1 mps 646 mmHg 58%
    11:00 +26°C° 0.2 mm 1 mps 646 mmHg 56%
    12:00 +27°C° 0.2 mm 2 mps 645 mmHg 53%
    13:00 +27°C° 0.2 mm 2 mps 645 mmHg 50%
    14:00 +27°C° 0.2 mm 2 mps 644 mmHg 52%
    15:00 +27°C° 0.2 mm 2 mps 644 mmHg 54%
    16:00 +26°C° 0.2 mm 1 mps 643 mmHg 56%
    17:00 +24°C° 0.3 mm 1 mps 643 mmHg 64%
    18:00 +23°C° 0.3 mm 1 mps 643 mmHg 73%
    19:00 +19°C° 0.3 mm 0 mps 642 mmHg 81%
    20:00 +18°C° 0.1 mm 0 mps 643 mmHg 82%
    21:00 +20°C° 0.1 mm 1 mps 643 mmHg 83%
    22:00 +20°C° 0.1 mm 1 mps 644 mmHg 84%
    23:00 +19°C° 0.2 mm 1 mps 643 mmHg 84%

    Day after tomorrow, 22 November, Wednesday

    Time Temperature Precipitation Wind Pressure Humidity
    00:00 +19°C° 0.2 mm 1 mps 643 mmHg 84%
    01:00 +19°C° 0.2 mm 1 mps 643 mmHg 84%
    02:00 +19°C° 0.1 mm 1 mps 643 mmHg 84%
    03:00 +18°C° 0.1 mm 1 mps 642 mmHg 83%
    04:00 +18°C° 0.1 mm 1 mps 642 mmHg 83%
    05:00 +18°C° 0 mm 1 mps 642 mmHg 81%
    06:00 +18°C° 0 mm 1 mps 643 mmHg 79%
    07:00 +19°C° 0 mm 1 mps 643 mmHg 77%
    08:00 +21°C° 0 mm 1 mps 645 mmHg 66%
    09:00 +24°C° 0 mm 1 mps 646 mmHg 56%
    10:00 +27°C° 0 mm 1 mps 647 mmHg 45%
    11:00 +27°C° 0.1 mm 1 mps 646 mmHg 43%
    12:00 +28°C° 0.1 mm 2 mps 646 mmHg 42%
    13:00 +29°C° 0.1 mm 2 mps 645 mmHg 40%
    14:00 +28°C° 0.1 mm 2 mps 644 mmHg 41%
    15:00 +28°C° 0.1 mm 2 mps 644 mmHg 43%
    16:00 +27°C° 0.1 mm 2 mps 643 mmHg 45%
    17:00 +25°C° 0.4 mm 2 mps 643 mmHg 55%
    18:00 +23°C° 0.4 mm 1 mps 643 mmHg 65%
    19:00 +21°C° 0.4 mm 1 mps 643 mmHg 75%
    20:00 +20°C° 0.1 mm 1 mps 643 mmHg 79%
    21:00 +20°C° 0.1 mm 1 mps 644 mmHg 83%
    22:00 +20°C° 0.1 mm 1 mps 644 mmHg 87%
    23:00 +19°C° 0 mm 1 mps 644 mmHg 88%

    23 November, Thursday

    Time Temperature Precipitation Wind Pressure Humidity
    00:00 +19°C° 0 mm 1 mps 644 mmHg 89%
    01:00 +19°C° 0 mm 1 mps 643 mmHg 91%
    02:00 +19°C° 0.1 mm 1 mps 643 mmHg 91%
    03:00 +18°C° 0.1 mm 1 mps 643 mmHg 91%
    04:00 +18°C° 0.1 mm 1 mps 642 mmHg 91%
    05:00 +18°C° 0 mm 1 mps 643 mmHg 89%
    06:00 +19°C° 0 mm 1 mps 643 mmHg 86%
    07:00 +19°C° 0 mm 1 mps 644 mmHg 84%
    08:00 +21°C° 0 mm 1 mps 645 mmHg 75%
    09:00 +23°C° 0 mm 1 mps 646 mmHg 65%
    10:00 +25°C° 0 mm 1 mps 647 mmHg 55%
    11:00 +26°C° 0 mm 1 mps 646 mmHg 51%
    12:00 +27°C° 0 mm 2 mps 646 mmHg 47%
    13:00 +28°C° 0 mm 2 mps 645 mmHg 42%
    14:00 +28°C° 0.1 mm 1 mps 645 mmHg 45%
    15:00 +27°C° 0.1 mm 1 mps 644 mmHg 47%
    16:00 +26°C° 0.1 mm 1 mps 644 mmHg 50%
    17:00 +24°C° 0.2 mm 1 mps 643 mmHg 60%
    18:00 +22°C° 0.2 mm 1 mps 643 mmHg 70%
    19:00 +20°C° 0.2 mm 1 mps 643 mmHg 80%
    20:00 +20°C° 0 mm 1 mps 644 mmHg 83%
    21:00 +19°C° 0 mm 1 mps 644 mmHg 86%
    22:00 +19°C° 0 mm 1 mps 644 mmHg 89%
    23:00 +19°C° 0 mm 1 mps 644 mmHg 90%

    24 November, Friday

    Time Temperature Precipitation Wind Pressure Humidity
    00:00 +18°C° 0 mm 1 mps 644 mmHg 91%
    01:00 +18°C° 0 mm 1 mps 643 mmHg 92%
    02:00 +18°C° 0 mm 1 mps 643 mmHg 91%
    03:00 +16°C° 0 mm 1 mps 643 mmHg 91%
    04:00 +16°C° 0 mm 1 mps 642 mmHg 90%
    05:00 +16°C° 0 mm 1 mps 643 mmHg 87%
    06:00 +16°C° 0 mm 1 mps 643 mmHg 85%
    07:00 +18°C° 0 mm 1 mps 644 mmHg 82%
    08:00 +20°C° 0 mm 1 mps 645 mmHg 69%
    09:00 +23°C° 0 mm 1 mps 646 mmHg 56%
    10:00 +26°C° 0 mm 1 mps 647 mmHg 42%
    11:00 +27°C° 0 mm 1 mps 646 mmHg 38%
    12:00 +29°C° 0 mm 1 mps 646 mmHg 34%
    13:00 +30°C° 0 mm 2 mps 646 mmHg 30%
    14:00 +29°C° 0 mm 1 mps 645 mmHg 32%
    15:00 +29°C° 0 mm 1 mps 644 mmHg 33%
    16:00 +28°C° 0 mm 1 mps 644 mmHg 35%
    17:00 +26°C° 0 mm 1 mps 644 mmHg 46%
    18:00 +23°C° 0 mm 1 mps 643 mmHg 56%
    19:00 +20°C° 0 mm 1 mps 643 mmHg 67%
    20:00 +20°C° 0 mm 1 mps 643 mmHg 72%
    21:00 +19°C° 0 mm 1 mps 644 mmHg 77%
    22:00 +19°C° 0 mm 1 mps 644 mmHg 83%
    23:00 +18°C° 0 mm 1 mps 644 mmHg 85%

    25 November, Saturday

    Time Temperature Precipitation Wind Pressure Humidity
    00:00 +18°C° 0 mm 1 mps 643 mmHg 87%
    01:00 +18°C° 0 mm 1 mps 643 mmHg 88%
    02:00 +16°C° 0 mm 1 mps 643 mmHg 88%
    03:00 +16°C° 0 mm 1 mps 643 mmHg 87%
    04:00 +16°C° 0 mm 1 mps 643 mmHg 86%
    05:00 +16°C° 0 mm 1 mps 643 mmHg 84%
    06:00 +16°C° 0 mm 1 mps 643 mmHg 81%
    07:00 +18°C° 0 mm 1 mps 644 mmHg 79%
    08:00 +21°C° 0 mm 1 mps 645 mmHg 66%
    09:00 +24°C° 0 mm 1 mps 646 mmHg 54%
    10:00 +27°C° 0 mm 1 mps 647 mmHg 41%
    11:00 +28°C° 0 mm 1 mps 647 mmHg 38%
    12:00 +29°C° 0 mm 1 mps 646 mmHg 34%
    13:00 +30°C° 0 mm 1 mps 646 mmHg 31%
    14:00 +29°C° 0 mm 1 mps 645 mmHg 32%
    15:00 +29°C° 0 mm 1 mps 645 mmHg 33%
    16:00 +28°C° 0 mm 1 mps 644 mmHg 35%
    17:00 +25°C° 0.1 mm 1 mps 644 mmHg 44%
    18:00 +23°C° 0.1 mm 1 mps 644 mmHg 54%
    19:00 +21°C° 0.1 mm 1 mps 644 mmHg 64%
    20:00 +20°C° 0 mm 1 mps 644 mmHg 68%
    21:00 +19°C° 0 mm 1 mps 644 mmHg 73%
    22:00 +19°C° 0 mm 1 mps 644 mmHg 77%
    23:00 +18°C° 0 mm 1 mps 644 mmHg 77%
    Show more